Orbital Elements at Epoch 2459200.5 (2020-Dec-17.0) TDB
Reference: JPL 15 (heliocentric ecliptic J2000)
Element | Value | Uncertainty (1-sigma) | Units |
e | .2143665823797153 | 3.9226e-08 | |
a | 2.352613880032373 | 7.1936e-09 | au |
q | 1.848292082910752 | 9.2884e-08 | au |
i | 3.264158189767664 | 3.649e-06 | deg |
node | 113.3765671855564 | 7.7426e-05 | deg |
peri | 275.0841616955686 | 7.8037e-05 | deg |
M | 115.0324153344752 | 8.2925e-06 | deg |
tp | 2458779.344819384499 (2019-Oct-22.84481938) | 3.0465e-05 | TDB |
period | 1318.027310656156 3.61 | 6.0452e-06 1.655e-08 | d yr |
n | .2731354631952054 | 1.2527e-09 | deg/d |
Q | 2.856935677153995 | 8.7356e-09 | au |
|
| | Orbit Determination Parameters
Additional Information
|